CW9414 Weather Reports


Display with metric or nautical units.
time (UTC)temp
F
wind
direction
speed
MPH
gust
MPH
rain 1hr
in
rain 24hr
in
rain mn
in
humidity
%
barometer
mb
20260902055446 82 46 0.0 0.0 0.00 0.00 0.00 72 1010.0
20260902054447 82 46 0.0 0.0 0.00 0.00 0.00 72 1009.9
20260902053450 82 46 0.0 0.0 0.00 0.00 0.00 71 1009.9
20260902052446 82 46 0.0 0.0 0.00 0.00 0.00 72 1009.9
20260902051447 82 46 0.0 0.0 0.00 0.00 0.00 71 1010.0
20260902050446 82 46 0.0 0.0 0.00 0.00 0.00 70 1010.0
20260902045446 82 46 0.0 0.0 0.00 0.00 0.00 70 1009.9
20260902044446 82 46 0.0 0.0 0.00 0.00 0.00 70 1009.7
20260902043446 82 46 0.0 0.0 0.00 0.00 0.00 69 1009.7
20260902042446 82 46 0.0 0.0 0.00 0.00 0.00 69 1010.0
20260902041446 82 46 0.0 0.0 0.00 0.00 0.00 69 1010.2
20260902040446 82 46 0.0 0.0 0.00 0.00 0.00 69 1010.2
20260902035446 83 46 0.0 0.0 0.00 0.00 0.00 69 1010.2
20260902034446 83 46 0.0 0.0 0.00 0.00 0.00 68 1010.2
20260902033447 83 46 0.0 0.0 0.00 0.00 0.00 68 1010.2
20260902032446 83 46 0.0 0.0 0.00 0.00 0.00 68 1010.1
20260902031446 83 46 0.0 0.0 0.00 0.00 0.00 68 1009.7
20260902030447 84 46 0.0 0.0 0.00 0.00 0.00 68 1009.7
20260902025450 84 46 0.0 0.0 0.00 0.00 0.00 68 1009.6
20260902024446 84 46 0.0 0.0 0.00 0.00 0.00 66 1009.5
20260902023446 84 46 0.0 0.0 0.00 0.00 0.00 67 1009.5
20260902022446 84 46 0.0 0.0 0.00 0.00 0.00 67 1009.3
20260902021446 85 46 0.0 0.0 0.00 0.00 0.00 65 1009.0
20260902020449 85 46 0.0 0.0 0.00 0.00 0.00 64 1009.0
20260902015446 85 46 0.0 0.0 0.00 0.00 0.00 63 1008.8
20260902014449 85 46 0.0 0.0 0.00 0.00 0.00 62 1008.6
20260902013446 85 46 0.0 0.0 0.00 0.00 0.00 61 1008.7
20260902012449 85 46 0.0 0.0 0.00 0.00 0.00 61 1008.7
20260902011446 86 46 0.0 0.0 0.00 0.00 0.00 61 1008.7
20260902010446 86 46 0.0 0.0 0.00 0.00 0.00 61 1008.7
20260902005446 86 46 0.0 0.0 0.00 0.00 0.00 60 1008.9
20260902004446 87 46 0.0 0.0 0.00 0.00 0.00 60 1008.8
20260902003449 87 46 0.0 0.0 0.00 0.00 0.00 60 1008.8
20260902002446 87 46 0.0 1.0 0.00 0.00 0.00 60 1008.7
20260902001446 88 46 0.0 1.0 0.00 0.00 0.00 61 1008.7
20260902000446 88 46 0.0 0.0 0.00 0.00 0.00 61 1008.7
20260901235449 89 46 0.0 2.0 0.00 0.00 0.00 60 1008.7
20260901234446 89 46 0.0 2.0 0.00 0.00 0.00 58 1008.7
20260901233446 90 46 0.0 7.0 0.00 0.00 0.00 58 1008.7
20260901232445 90 20 1.0 2.0 0.00 0.00 0.00 52 1008.7
20260901231449 91 20 0.0 0.0 0.00 0.00 0.00 51 1008.7
20260901230446 91 20 0.0 2.0 0.00 0.00 0.00 51 1008.7
20260901225446 91 20 0.0 2.0 0.00 0.00 0.00 49 1008.8
20260901224446 91 20 0.0 0.0 0.00 0.00 0.00 48 1008.8
20260901223446 92 20 0.0 0.0 0.00 0.00 0.00 47 1008.8
20260901222446 92 20 0.0 0.0 0.00 0.00 0.00 47 1008.8
20260901221449 92 20 0.0 2.0 0.00 0.00 0.00 45 1009.1
20260901220446 92 20 0.0 0.0 0.00 0.00 0.00 45 1009.1
20260901215446 92 20 0.0 0.0 0.00 0.00 0.00 44 1009.3
20260901214445 93 20 0.0 2.0 0.00 0.00 0.00 44 1009.5
20260901213446 93 20 0.0 0.0 0.00 0.00 0.00 45 1009.5
20260901212446 94 20 0.0 2.0 0.00 0.00 0.00 46 1009.3
20260901211445 94 20 0.0 2.0 0.00 0.00 0.00 47 1009.2
20260901210449 95 20 0.0 3.0 0.00 0.00 0.00 45 1009.2
20260901205446 96 20 1.0 5.0 0.00 0.00 0.00 45 1009.3
20260901204449 97 20 0.0 3.0 0.00 0.00 0.00 42 1009.6
20260901203449 97 20 0.0 6.0 0.00 0.00 0.00 44 1009.6
20260901202446 97 34 0.0 4.0 0.00 0.00 0.00 45 1009.8
20260901201446 97 12 3.0 7.0 0.00 0.00 0.00 45 1010.0
20260901200445 95 22 2.0 3.0 0.00 0.00 0.00 47 1010.0
20260901195446 94 22 0.0 6.0 0.00 0.00 0.00 48 1010.2
20260901194446 94 17 3.0 4.0 0.00 0.00 0.00 48 1010.2
20260901193446 94 0 0.0 3.0 0.00 0.00 0.00 47 1010.2
20260901192445 94 300 1.0 3.0 0.00 0.00 0.00 48 1010.3
20260901191446 93 300 0.0 4.0 0.00 0.00 0.00 50 1010.3
20260901190445 93 9 3.0 6.0 0.00 0.00 0.00 51 1010.3
20260901185448 93 20 1.0 4.0 0.00 0.00 0.00 51 1010.7
20260901184445 93 325 1.0 4.0 0.00 0.00 0.00 52 1010.8
20260901183445 92 300 2.0 5.0 0.00 0.00 0.00 53 1010.8
20260901182449 92 17 0.0 3.0 0.00 0.00 0.00 55 1010.8
20260901181445 91 17 0.0 4.0 0.00 0.00 0.00 57 1011.0
20260901180446 90 17 0.0 5.0 0.00 0.00 0.00 59 1011.0
20260901175449 89 18 1.0 3.0 0.00 0.00 0.00 62 1011.3
20260901174445 89 18 1.0 4.0 0.00 0.00 0.00 63 1011.8
20260901173445 88 23 1.0 2.0 0.00 0.00 0.00 64 1011.8
20260901172445 88 26 0.0 3.0 0.00 0.00 0.00 65 1011.9
20260901171446 87 26 3.0 5.0 0.00 0.00 0.00 65 1012.2
20260901170446 87 26 2.0 5.0 0.00 0.00 0.00 67 1012.2
20260901165446 87 27 1.0 5.0 0.00 0.00 0.00 69 1012.2
20260901164445 86 27 0.0 1.0 0.00 0.00 0.00 72 1012.2
20260901163445 86 27 1.0 4.0 0.00 0.00 0.00 72 1012.2
20260901162446 86 317 1.0 3.0 0.00 0.00 0.00 73 1012.3
20260901161445 85 311 0.0 3.0 0.00 0.00 0.00 73 1012.3
20260901160445 85 313 0.0 4.0 0.00 0.00 0.00 75 1012.3
20260901155445 85 312 1.0 6.0 0.00 0.00 0.00 75 1012.2
20260901154446 84 355 0.0 4.0 0.00 0.00 0.00 75 1012.2
20260901153446 84 258 3.0 4.0 0.00 0.00 0.00 77 1012.2
20260901152445 84 257 0.0 3.0 0.00 0.00 0.00 78 1012.1
20260901151446 83 252 3.0 6.0 0.00 0.00 0.00 79 1012.3
20260901150445 83 146 1.0 4.0 0.00 0.00 0.00 79 1012.3
20260901145446 82 145 2.0 4.0 0.00 0.00 0.00 81 1012.3
20260901144446 82 144 0.0 4.0 0.00 0.00 0.00 82 1012.3
20260901143446 82 144 0.0 2.0 0.00 0.00 0.00 82 1012.3
20260901142445 81 145 0.0 1.0 0.00 0.00 0.00 83 1012.2
20260901141448 81 144 0.0 2.0 0.00 0.00 0.00 83 1012.2
20260901140449 81 144 1.0 4.0 0.00 0.00 0.00 84 1012.2
20260901135445 81 145 0.0 0.0 0.00 0.00 0.00 85 1012.3
20260901134445 79 144 0.0 0.0 0.00 0.00 0.00 85 1012.2
20260901133445 79 144 0.0 0.0 0.00 0.00 0.00 85 1012.2
20260901132446 79 144 0.0 0.0 0.00 0.00 0.00 85 1011.9
20260901131445 79 144 0.0 0.0 0.00 0.00 0.00 85 1011.7
20260901130448 79 144 0.0 0.0 0.00 0.00 0.00 85 1011.7
20260901125445 79 144 0.0 0.0 0.00 0.00 0.00 85 1011.5
20260901124445 79 144 0.0 0.0 0.00 0.00 0.00 85 1011.3
20260901123445 79 144 0.0 0.0 0.00 0.00 0.00 85 1011.3
20260901122445 79 144 0.0 0.0 0.00 0.00 0.00 85 1011.2
20260901121445 79 144 0.0 0.0 0.00 0.00 0.00 84 1010.8
20260901120445 79 144 0.0 0.0 0.00 0.00 0.00 84 1010.8
20260901115445 79 144 0.0 0.0 0.00 0.00 0.00 84 1010.7
20260901114445 79 144 0.0 0.0 0.00 0.00 0.00 84 1010.8
20260901113445 79 144 0.0 0.0 0.00 0.00 0.00 84 1010.8
20260901112445 80 144 0.0 0.0 0.00 0.00 0.00 84 1010.8
20260901111445 80 144 0.0 0.0 0.00 0.00 0.00 83 1010.8
20260901110445 80 145 0.0 0.0 0.00 0.00 0.00 83 1010.8
20260901105445 80 145 0.0 0.0 0.00 0.00 0.00 82 1010.8
20260901104445 80 144 0.0 0.0 0.00 0.00 0.00 82 1010.6
20260901103445 80 144 0.0 0.0 0.00 0.00 0.00 82 1010.6
20260901102448 80 144 0.0 0.0 0.00 0.00 0.00 82 1010.7
20260901101445 80 144 0.0 0.0 0.00 0.00 0.00 82 1010.7
20260901100445 80 144 0.0 0.0 0.00 0.00 0.00 81 1010.7
20260901095445 80 144 0.0 0.0 0.00 0.00 0.00 81 1010.8
20260901094448 81 144 0.0 0.0 0.00 0.00 0.00 81 1010.7
20260901093448 81 144 0.0 0.0 0.00 0.00 0.00 80 1010.7
20260901092445 81 144 0.0 0.0 0.00 0.00 0.00 80 1010.8
20260901091445 81 144 0.0 0.0 0.00 0.00 0.00 80 1010.7
20260901090445 81 144 0.0 0.0 0.00 0.00 0.00 80 1010.7
20260901085445 81 144 0.0 0.0 0.00 0.00 0.00 79 1010.8
20260901084448 81 144 0.0 0.0 0.00 0.00 0.00 79 1011.0
20260901083445 82 144 0.0 0.0 0.00 0.00 0.00 79 1011.0
20260901082445 82 144 0.0 0.0 0.00 0.00 0.00 79 1011.2
20260901081445 82 144 0.0 0.0 0.00 0.00 0.00 79 1011.2
20260901080444 82 144 0.0 0.0 0.00 0.00 0.00 79 1011.2
20260901075448 82 144 0.0 0.0 0.00 0.00 0.00 79 1011.3
20260901074445 82 144 0.0 0.0 0.00 0.00 0.00 78 1011.3
20260901073445 82 144 0.0 0.0 0.00 0.00 0.00 78 1011.3
20260901072445 82 144 0.0 0.0 0.00 0.00 0.00 78 1011.3
20260901071445 82 144 0.0 0.0 0.00 0.00 0.00 77 1011.3
20260901070445 82 144 0.0 0.0 0.00 0.00 0.00 77 1011.3
20260901065444 82 144 0.0 0.0 0.00 0.00 0.00 77 1011.3
20260901064448 82 144 0.0 0.0 0.00 0.00 0.00 76 1011.4
20260901063444 82 144 0.0 0.0 0.00 0.00 0.00 75 1011.4
20260901062444 83 144 0.0 0.0 0.00 0.00 0.00 75 1011.5
20260901061448 83 144 0.0 0.0 0.00 0.00 0.00 75 1011.7
20260901060444 83 144 0.0 0.0 0.00 0.00 0.00 74 1011.7